WetterOnline ( http://www.wetteronline.de )

Wetter aktuell Sylt

Aktuelles Wetter: List/Sylt (29m)

6-stündlich | Neueste Meldungen
Ortszeit Temperatur Wetter
Fr, 20.07. 20:00 19.0° C wolkenlos
Fr, 20.07. 14:00 20.1° C wolkenlos
Fr, 20.07. 8:00 16.9° C wolkig
Fr, 20.07. 2:00 13.6° C bedeckt
Do, 19.07. 20:00 17.3° C fast wolkenlos
Do, 19.07. 14:00 18.8° C wolkenlos
Do, 19.07. 8:00 17.0° C wolkig
Do, 19.07. 2:00 14.5° C wolkenlos
Ortszeit Temperatur Wetter
Sa, 21.07. 1:30 15.6° C fast wolkenlos
Sa, 21.07. 1:20 15.6° C fast wolkenlos
Sa, 21.07. 1:10 15.8° C fast wolkenlos
Sa, 21.07. 1:00 15.4° C fast wolkenlos
Sa, 21.07. 0:50 15.4° C fast wolkenlos
Sa, 21.07. 0:40 15.4° C fast wolkenlos
Sa, 21.07. 0:30 16.0° C fast wolkenlos
Sa, 21.07. 0:00 15.7° C wolkenlos
Fr, 20.07. 23:30 15.6° C wolkenlos
Fr, 20.07. 23:00 15.8° C wolkenlos
Fr, 20.07. 22:30 15.8° C wolkenlos
Ortszeit Relative Feuchte Sichtweite
Fr, 20.07. 20:00 64% 18 km
Fr, 20.07. 14:00 56% 11 km
Fr, 20.07. 8:00 75% 12 km
Fr, 20.07. 2:00 88% 60 km
Do, 19.07. 20:00 67% 9 km
Do, 19.07. 14:00 66% 8 km
Do, 19.07. 8:00 79% 30 km
Do, 19.07. 2:00 90% 26 km
Ortszeit Relative Feuchte Sichtweite
Sa, 21.07. 1:30 72% 70 km
Sa, 21.07. 1:20 72% -
Sa, 21.07. 1:10 73% -
Sa, 21.07. 1:00 71% 70 km
Sa, 21.07. 0:50 71% -
Sa, 21.07. 0:40 76% -
Sa, 21.07. 0:30 82% 60 km
Sa, 21.07. 0:00 76% 70 km
Fr, 20.07. 23:30 72% 70 km
Fr, 20.07. 23:00 75% 65 km
Fr, 20.07. 22:30 79% 65 km
Ortszeit Niederschlagsmenge Niederschlagsart
Fr, 20.07. 20:00 0.0 l/m2 in 12 Std. -
Fr, 20.07. 14:00 0.0 l/m2 in 6 Std. -
Fr, 20.07. 8:00 0.0 l/m2 in 12 Std. -
Fr, 20.07. 2:00 0.0 l/m2 in 6 Std. -
Do, 19.07. 20:00 0.0 l/m2 in 12 Std. -
Do, 19.07. 14:00 0.0 l/m2 in 6 Std. -
Do, 19.07. 8:00 0.0 l/m2 in 12 Std. -
Do, 19.07. 2:00 0.0 l/m2 in 6 Std. -
Ortszeit Niederschlagsmenge Niederschlagsart
Sa, 21.07. 1:30 0.0 l/m2 in 1 Std. -
Sa, 21.07. 1:20 keine Meldung -
Sa, 21.07. 1:10 keine Meldung -
Sa, 21.07. 1:00 0.0 l/m2 in 1 Std. -
Sa, 21.07. 0:50 keine Meldung -
Sa, 21.07. 0:40 keine Meldung -
Sa, 21.07. 0:30 0.0 l/m2 in 1 Std. -
Sa, 21.07. 0:00 0.0 l/m2 in 1 Std. -
Fr, 20.07. 23:30 0.0 l/m2 in 1 Std. -
Fr, 20.07. 23:00 0.0 l/m2 in 1 Std. -
Fr, 20.07. 22:30 0.0 l/m2 in 1 Std. -
Ortszeit Stärke Spitze Richtung
km/h Bft. km/h Grad Sektor
Fr, 20.07. 20:00 22 4 29 330° NW
Fr, 20.07. 14:00 19 3 30 310° NW
Fr, 20.07. 8:00 14 3 22 290° W
Fr, 20.07. 2:00 14 3 32 340° N
Do, 19.07. 20:00 28 4 41 320° NW
Do, 19.07. 14:00 25 4 36 310° NW
Do, 19.07. 8:00 18 3 29 300° NW
Do, 19.07. 2:00 15 3 33 320° NW
Ortszeit Stärke Spitze Richtung
km/h Bft. km/h Grad Sektor
Sa, 21.07. 1:30 18 3 22 20° N
Sa, 21.07. 1:20 18 3 - 20° N
Sa, 21.07. 1:10 18 3 - 20° N
Sa, 21.07. 1:00 18 3 25 10° N
Sa, 21.07. 0:50 18 3 - 10° N
Sa, 21.07. 0:40 20 4 - 10° N
Sa, 21.07. 0:30 18 3 22 360° N
Sa, 21.07. 0:00 18 3 22 360° N
Fr, 20.07. 23:30 18 3 22 350° N
Fr, 20.07. 23:00 18 3 25 350° N
Fr, 20.07. 22:30 18 3 22 350° N
Ortszeit Untergrenze Bedeckung Gattung
total tief tief mittel hoch
Fr, 20.07. 20:00 - 0/8 0/8 - - -
Fr, 20.07. 14:00 3600 m 0/8 0/8 - - -
Fr, 20.07. 8:00 2700 m 8/8 2/8 - - -
Fr, 20.07. 2:00 6900 m 8/8 8/8 - - -
Do, 19.07. 20:00 9000 m 2/8 0/8 - - -
Do, 19.07. 14:00 - 0/8 0/8 - - -
Do, 19.07. 8:00 450 m 8/8 2/8 - - -
Do, 19.07. 2:00 - 0/8 0/8 - - -
Ortszeit Bedeckungsgrad in Achtel und Wolkenuntergrenze
Sa, 21.07. 1:30 1(2700m)
Sa, 21.07. 1:20 1(2700m)
Sa, 21.07. 1:10 1(2700m)
Sa, 21.07. 1:00 1(2700m)
Sa, 21.07. 0:50 1(2700m)
Sa, 21.07. 0:40 1(2700m)
Sa, 21.07. 0:30 1(2700m)
Sa, 21.07. 0:00 keine Wolken
Fr, 20.07. 23:30 keine Wolken
Fr, 20.07. 23:00 keine Wolken
Fr, 20.07. 22:30 keine Wolken
Ortszeit Luftdruck NN (hPa) Tendenz (hPa in 3 Std.)
Fr, 20.07. 20:00 1014 - 1,0
Fr, 20.07. 14:00 1016 - 0,6
Fr, 20.07. 8:00 1017 - 0,4
Fr, 20.07. 2:00 1018 - 0,5
Do, 19.07. 20:00 1019 - 0,6
Do, 19.07. 14:00 1019 0,0
Do, 19.07. 8:00 1019 + 0,1
Do, 19.07. 2:00 1019 + 0,3
Ortszeit Luftdruck NN (hPa) Tendenz (hPa in 3 Std.)
Sa, 21.07. 1:30 1014 - 0,1
Sa, 21.07. 1:20 1014 keine Meldung
Sa, 21.07. 1:10 1014 keine Meldung
Sa, 21.07. 1:00 1014 - 0,2
Sa, 21.07. 0:50 1014 keine Meldung
Sa, 21.07. 0:40 1014 keine Meldung
Sa, 21.07. 0:30 1014 - 0,1
Sa, 21.07. 0:00 1014 0,0
Fr, 20.07. 23:30 1014 - 0,1
Fr, 20.07. 23:00 1014 0,0
Fr, 20.07. 22:30 1014 - 0,2
Ortszeit Schneehöhe (cm)
Fr, 20.07. 20:00 0
Fr, 20.07. 14:00 0
Fr, 20.07. 8:00 0
Fr, 20.07. 2:00 0
Do, 19.07. 20:00 0
Do, 19.07. 14:00 0
Do, 19.07. 8:00 0
Do, 19.07. 2:00 0
Ortszeit Schneehöhe (cm)
Sa, 21.07. 1:30 0
Sa, 21.07. 1:20 0
Sa, 21.07. 1:10 0
Sa, 21.07. 1:00 0
Sa, 21.07. 0:50 0
Sa, 21.07. 0:40 0
Sa, 21.07. 0:30 0
Sa, 21.07. 0:00 0
Fr, 20.07. 23:30 0
Fr, 20.07. 23:00 0
Fr, 20.07. 22:30 0
Link zu dieser Seite / Seite empfehlen

Das Wetter in ...